TimeICT,TemperatureF,Dew PointF,Humidity,Sea Level PressureIn,VisibilityMPH,Wind Direction,Wind SpeedMPH,Gust SpeedMPH,PrecipitationIn,Events,Conditions,WindDirDegrees,DateUTC
12:00 AM,77.0,73.4,89,29.89,5.0,NNW,4.6,-,N/A,,Mostly Cloudy,330,2012-09-19 17:00:00
12:30 AM,77.0,73.4,89,29.89,4.3,NW,4.6,-,N/A,Rain,Light Rain,310,2012-09-19 17:30:00
1:00 AM,81,78,88,29.83,5,West,5.8,,,,Mist,280,2012-09-19 18:00:00
1:00 AM,78.8,75.2,89,29.89,4.3,WNW,4.6,-,N/A,,Mostly Cloudy,290,2012-09-19 18:00:00
1:30 AM,78.8,75.2,89,29.86,4.3,NW,6.9,-,N/A,,Mostly Cloudy,310,2012-09-19 18:30:00
2:00 AM,78.8,73.4,83,29.86,4.3,WNW,8.1,-,N/A,,Mostly Cloudy,290,2012-09-19 19:00:00
2:30 AM,78.8,73.4,83,29.86,4.3,NW,8.1,-,N/A,,Mostly Cloudy,310,2012-09-19 19:30:00
3:00 AM,80.6,73.4,79,29.83,4.3,West,12.7,-,N/A,,Mostly Cloudy,280,2012-09-19 20:00:00
3:30 AM,80.6,73.4,79,29.83,4.3,WNW,11.5,-,N/A,,Mostly Cloudy,290,2012-09-19 20:30:00
4:00 AM,80.6,73.4,79,29.83,4.3,West,11.5,-,N/A,,Mostly Cloudy,280,2012-09-19 21:00:00
4:30 AM,80.6,73.4,79,29.83,4.3,West,17.3,-,N/A,,Mostly Cloudy,280,2012-09-19 21:30:00
5:00 AM,80.6,73.4,79,29.83,4.3,WNW,12.7,-,N/A,,Mostly Cloudy,290,2012-09-19 22:00:00
5:30 AM,80.6,73.4,79,29.83,4.3,West,12.7,-,N/A,,Mostly Cloudy,280,2012-09-19 22:30:00
6:00 AM,80.6,73.4,79,29.83,4.3,West,12.7,-,N/A,,Mostly Cloudy,280,2012-09-19 23:00:00
6:30 AM,80.6,75.2,84,29.86,4.3,WNW,13.8,-,N/A,,Mostly Cloudy,290,2012-09-19 23:30:00
7:00 AM,82,76,76,29.81,5,West,11.5,,,,Mist,280,2012-09-20 00:00:00
7:00 AM,80.6,73.4,79,29.86,4.3,West,13.8,-,N/A,,Mostly Cloudy,280,2012-09-20 00:00:00
7:30 AM,82.4,75.2,79,29.86,4.3,West,12.7,-,N/A,,Mostly Cloudy,280,2012-09-20 00:30:00
8:00 AM,82.4,75.2,79,29.89,4.3,West,15.0,-,N/A,,Mostly Cloudy,270,2012-09-20 01:00:00
8:30 AM,82.4,75.2,79,29.89,4.3,West,13.8,-,N/A,,Mostly Cloudy,270,2012-09-20 01:30:00
9:00 AM,82.4,75.2,79,29.89,5.0,West,11.5,-,N/A,,Mostly Cloudy,270,2012-09-20 02:00:00
9:30 AM,84.2,75.2,74,29.89,5.0,West,11.5,-,N/A,,Mostly Cloudy,280,2012-09-20 02:30:00
10:00 AM,82.4,73.4,74,29.92,5.0,West,13.8,-,N/A,,Mostly Cloudy,280,2012-09-20 03:00:00
10:30 AM,84.2,73.4,70,29.92,5.0,West,13.8,-,N/A,,Mostly Cloudy,280,2012-09-20 03:30:00
11:00 AM,84.2,73.4,70,29.92,5.6,West,13.8,-,N/A,,Mostly Cloudy,270,2012-09-20 04:00:00
11:30 AM,84.2,75.2,74,29.89,5.6,West,11.5,-,N/A,,Mostly Cloudy,280,2012-09-20 04:30:00
12:00 PM,84.2,75.2,74,29.89,5.6,West,16.1,-,N/A,,Mostly Cloudy,280,2012-09-20 05:00:00
12:30 PM,86.0,75.2,70,29.89,5.6,West,11.5,-,N/A,,Mostly Cloudy,270,2012-09-20 05:30:00
1:00 PM,85,75,65,29.85,6,West,17.3,,,,Scattered Clouds,280,2012-09-20 06:00:00
1:00 PM,86.0,77.0,74,29.86,5.6,West,17.3,-,N/A,,Mostly Cloudy,280,2012-09-20 06:00:00
1:30 PM,84.2,73.4,70,29.86,5.6,WNW,13.8,-,N/A,,Mostly Cloudy,290,2012-09-20 06:30:00
2:00 PM,84.2,73.4,70,29.86,5.6,West,17.3,-,N/A,,Mostly Cloudy,280,2012-09-20 07:00:00
2:30 PM,84.2,75.2,74,29.83,5.6,West,11.5,-,N/A,,Mostly Cloudy,270,2012-09-20 07:30:00
3:00 PM,84.2,75.2,74,29.83,5.6,West,13.8,-,N/A,,Mostly Cloudy,270,2012-09-20 08:00:00
3:30 PM,84.2,75.2,74,29.80,5.6,West,17.3,-,N/A,,Mostly Cloudy,270,2012-09-20 08:30:00
4:00 PM,84.2,73.4,70,29.80,5.6,West,11.5,-,N/A,,Mostly Cloudy,280,2012-09-20 09:00:00
4:30 PM,86.0,75.2,70,29.80,5.6,West,13.8,-,N/A,,Mostly Cloudy,280,2012-09-20 09:30:00
5:00 PM,84.2,73.4,70,29.80,5.6,West,16.1,-,N/A,,Mostly Cloudy,270,2012-09-20 10:00:00
5:30 PM,84.2,73.4,70,29.83,5.6,West,15.0,-,N/A,,Mostly Cloudy,280,2012-09-20 10:30:00
6:00 PM,82.4,73.4,74,29.83,5.6,West,16.1,-,N/A,,Mostly Cloudy,280,2012-09-20 11:00:00
6:30 PM,82.4,73.4,74,29.83,5.6,WNW,13.8,-,N/A,,Mostly Cloudy,290,2012-09-20 11:30:00
7:00 PM,83,75,71,29.81,6,West,10.4,,,,Scattered Clouds,280,2012-09-20 12:00:00
7:00 PM,82.4,73.4,74,29.86,5.6,West,13.8,-,N/A,,Mostly Cloudy,280,2012-09-20 12:00:00
7:30 PM,82.4,73.4,74,29.86,5.6,West,15.0,-,N/A,,Mostly Cloudy,280,2012-09-20 12:30:00
8:00 PM,82.4,73.4,74,29.86,5.6,WNW,11.5,-,N/A,,Mostly Cloudy,290,2012-09-20 13:00:00
8:30 PM,80.6,75.2,84,29.89,5.6,WNW,5.8,-,N/A,,Mostly Cloudy,300,2012-09-20 13:30:00
9:00 PM,78.8,75.2,89,29.89,5.6,NNW,5.8,-,N/A,,Mostly Cloudy,330,2012-09-20 14:00:00
9:30 PM,78.8,75.2,89,29.89,5.6,NW,4.6,-,N/A,,Mostly Cloudy,310,2012-09-20 14:30:00
10:00 PM,78.8,75.2,89,29.92,5.6,Calm,Calm,-,N/A,,Mostly Cloudy,0,2012-09-20 15:00:00
10:30 PM,77.0,75.2,94,29.92,5.6,Calm,Calm,-,N/A,,Mostly Cloudy,0,2012-09-20 15:30:00
11:00 PM,78.8,75.2,89,29.92,5.6,NW,4.6,-,N/A,,Mostly Cloudy,320,2012-09-20 16:00:00
11:30 PM,78.8,73.4,83,29.92,5.6,NW,5.8,-,N/A,,Mostly Cloudy,320,2012-09-20 16:30:00